GW2746 Weather Reports


Display with metric or nautical units.
time (UTC)temp
F
wind
direction
speed
MPH
gust
MPH
rain 1hr
in
rain 24hr
in
rain mn
in
humidity
%
barometer
mb
20260505173117 56 239 5.0 8.0 0.00 0.03 0.02 47 1013.8
20260505172622 55 9 3.0 6.0 0.00 0.03 0.02 46 1014.0
20260505172120 55 254 2.0 6.0 0.00 0.03 0.02 47 1013.9
20260505171624 55 14 2.0 6.0 0.00 0.03 0.02 49 1014.0
20260505171126 54 14 3.0 6.0 0.00 0.03 0.02 50 1014.1
20260505170633 54 46 2.0 4.0 0.00 0.03 0.02 49 1014.1
20260505170155 54 19 0.0 5.0 0.00 0.03 0.02 49 1014.1
20260505165617 53 327 2.0 5.0 0.00 0.03 0.02 50 1014.2
20260505165135 53 333 3.0 5.0 0.00 0.03 0.02 49 1014.1
20260505164622 53 35 1.0 6.0 0.00 0.03 0.02 51 1014.1
20260505164120 53 227 3.0 5.0 0.00 0.03 0.02 54 1014.2
20260505163627 53 216 1.0 5.0 0.00 0.03 0.02 54 1014.3
20260505163127 52 3 2.0 5.0 0.00 0.03 0.02 56 1014.0
20260505162630 52 300 1.0 4.0 0.00 0.03 0.02 57 1013.9
20260505162128 52 312 2.0 4.0 0.00 0.03 0.02 57 1013.8
20260505161651 51 313 1.0 6.0 0.00 0.03 0.02 58 1013.8
20260505161128 51 256 2.0 6.0 0.00 0.03 0.02 58 1013.7
20260505160631 51 273 2.0 7.0 0.00 0.03 0.02 59 1013.6
20260505160129 50 335 4.0 7.0 0.00 0.03 0.02 58 1013.8
20260505153130 49 316 3.0 7.0 0.00 0.03 0.02 66 1013.7
20260505152633 49 334 3.0 7.0 0.00 0.03 0.02 66 1013.6
20260505152127 49 9 0.0 7.0 0.00 0.03 0.02 68 1013.5
20260505151632 49 345 1.0 7.0 0.00 0.03 0.02 66 1013.4
20260505151129 49 327 2.0 6.0 0.00 0.03 0.02 66 1013.3
20260505150633 49 344 2.0 5.0 0.00 0.03 0.02 67 1013.3
20260505150136 49 304 4.0 5.0 0.00 0.03 0.02 65 1013.2
20260505140118 49 293 2.0 5.0 0.00 0.03 0.02 64 1013.1
20260505130152 49 259 1.0 3.0 0.00 0.03 0.02 68 1012.2
20260505124623 49 325 0.0 4.0 0.00 0.03 0.02 67 1011.8
20260505124121 48 19 0.0 1.0 0.00 0.03 0.02 70 1011.7
20260505123625 48 32 0.0 2.0 0.00 0.03 0.02 68 1011.6
20260505123121 48 32 0.0 2.0 0.00 0.03 0.02 70 1011.5
20260505122641 48 67 0.0 0.0 0.00 0.03 0.02 70 1011.4
20260505122119 48 67 0.0 0.0 0.00 0.03 0.02 71 1011.2
20260505121623 48 67 0.0 1.0 0.00 0.03 0.02 71 1011.2
20260505121119 47 67 0.0 1.0 0.00 0.03 0.02 68 1011.1
20260505120622 47 67 0.0 0.0 0.00 0.03 0.02 68 1011.0
20260505120141 47 67 0.0 2.0 0.00 0.03 0.02 68 1011.0
20260505115643 47 71 1.0 3.0 0.00 0.03 0.02 69 1010.7
20260505115121 47 71 0.0 3.0 0.00 0.03 0.02 69 1010.7
20260505114629 47 33 0.0 3.0 0.00 0.03 0.02 71 1010.5
20260505114129 46 44 0.0 2.0 0.00 0.03 0.02 73 1010.5
20260505113635 46 85 0.0 3.0 0.00 0.03 0.02 75 1010.5
20260505113136 46 85 0.0 3.0 0.00 0.03 0.02 76 1010.4
20260505112640 46 163 0.0 2.0 0.00 0.03 0.02 78 1010.5
20260505112121 46 167 0.0 2.0 0.00 0.03 0.02 80 1010.5
20260505111628 46 167 0.0 0.0 0.00 0.03 0.02 81 1010.6
20260505111127 46 167 0.0 0.0 0.00 0.03 0.02 82 1010.6
20260505110633 46 167 0.0 2.0 0.00 0.03 0.02 82 1010.7
20260505110133 46 167 0.0 2.0 0.00 0.03 0.02 83 1010.7
20260505102118 47 167 0.0 0.0 0.00 0.03 0.02 87 1010.9
20260505101623 47 167 0.0 0.0 0.00 0.03 0.02 87 1010.8
20260505101122 47 167 0.0 0.0 0.00 0.03 0.02 87 1010.9
20260505100629 47 167 0.0 0.0 0.00 0.03 0.02 87 1010.9
20260505100132 47 167 0.0 0.0 0.00 0.03 0.02 87 1010.9
20260505095634 47 167 0.0 0.0 0.00 0.03 0.02 87 1010.8
20260505095131 47 167 0.0 0.0 0.00 0.03 0.02 87 1010.8
20260505094636 47 167 0.0 0.0 0.00 0.03 0.02 87 1010.7
20260505094134 47 167 0.0 1.0 0.00 0.03 0.02 87 1010.6
20260505093623 47 167 0.0 2.0 0.00 0.03 0.02 86 1010.5
20260505093121 47 167 0.0 2.0 0.00 0.03 0.02 86 1011.4
20260505092628 47 167 0.0 1.0 0.00 0.03 0.02 86 1011.3
20260505092126 47 167 0.0 2.0 0.00 0.03 0.02 87 1011.0
20260505091627 47 167 0.0 2.0 0.00 0.03 0.02 87 1011.1
20260505091124 47 167 0.0 0.0 0.00 0.03 0.02 88 1011.0
20260505090627 48 167 0.0 1.0 0.00 0.03 0.02 88 1011.0
20260505090149 48 167 0.0 2.0 0.00 0.03 0.02 88 1010.9
20260505085633 48 167 0.0 2.0 0.00 0.03 0.02 88 1010.8
20260505085129 48 167 0.0 1.0 0.00 0.03 0.02 88 1010.8
20260505084633 48 167 0.0 1.0 0.00 0.03 0.02 89 1010.8
20260505084130 48 167 0.0 4.0 0.00 0.03 0.02 89 1010.9
20260505083634 48 167 1.0 4.0 0.00 0.03 0.02 89 1010.8
20260505083132 48 167 1.0 2.0 0.00 0.03 0.02 89 1010.7
20260505082635 48 167 0.0 1.0 0.00 0.03 0.02 90 1010.5
20260505082153 48 167 0.0 1.0 0.00 0.03 0.02 90 1010.5
20260505081634 48 167 0.0 1.0 0.00 0.03 0.02 90 1010.3
20260505081135 48 167 0.0 1.0 0.00 0.03 0.02 90 1010.3
20260505080639 48 167 0.0 1.0 0.00 0.03 0.02 89 1010.1
20260505080118 48 167 0.0 2.0 0.00 0.03 0.02 89 1009.9
20260505075624 48 167 0.0 2.0 0.00 0.03 0.02 89 1009.8
20260505075125 48 167 1.0 2.0 0.00 0.03 0.02 89 1009.9
20260505074647 48 167 0.0 1.0 0.00 0.03 0.02 89 1010.0
20260505074124 48 167 0.0 2.0 0.00 0.03 0.02 89 1010.1
20260505073627 48 167 0.0 2.0 0.01 0.03 0.02 89 1010.2
20260505073133 48 167 0.0 1.0 0.01 0.03 0.02 89 1010.1
20260505072656 48 167 0.0 1.0 0.01 0.03 0.02 88 1010.0
20260505072135 48 167 0.0 2.0 0.02 0.03 0.02 88 1009.9
20260505071620 48 167 0.0 2.0 0.02 0.03 0.02 87 1010.1
20260505071123 48 167 0.0 2.0 0.02 0.03 0.02 87 1010.0
20260505070625 48 167 1.0 2.0 0.02 0.03 0.02 87 1010.1
20260505070128 48 167 1.0 2.0 0.02 0.03 0.02 85 1009.9
20260505065632 48 98 0.0 3.0 0.02 0.03 0.02 84 1009.3
20260505065124 48 64 1.0 3.0 0.02 0.03 0.02 85 1009.4
20260505064647 48 278 0.0 2.0 0.02 0.03 0.02 84 1009.7
20260505064123 48 278 1.0 2.0 0.02 0.03 0.02 83 1009.9
20260505063631 48 278 0.0 2.0 0.01 0.02 0.01 81 1009.7
20260505063128 49 278 0.0 2.0 0.01 0.02 0.01 80 1009.7
20260505062634 49 278 1.0 2.0 0.01 0.02 0.01 79 1009.8
20260505062133 49 278 0.0 3.0 0.00 0.01 0.00 77 1010.5
20260505061620 49 241 0.0 3.0 0.00 0.01 0.00 76 1010.5
20260505061120 49 77 0.0 5.0 0.00 0.01 0.00 74 1010.2
20260505060622 49 39 2.0 5.0 0.00 0.01 0.00 73 1009.9
20260505060121 49 36 2.0 4.0 0.00 0.01 0.00 73 1009.8
20260505055627 49 51 2.0 6.0 0.01 0.01 0.00 73 1009.9
20260505055122 49 9 2.0 6.0 0.01 0.01 0.00 73 1010.0
20260505054650 49 29 0.0 5.0 0.01 0.01 0.00 74 1010.0
20260505054127 49 112 2.0 5.0 0.01 0.01 0.00 74 1010.3
20260505053631 49 36 1.0 5.0 0.01 0.01 0.00 73 1010.1
20260505053127 49 68 3.0 5.0 0.01 0.01 0.00 73 1010.0
20260505052635 49 35 2.0 5.0 0.01 0.01 0.00 74 1009.5
20260505052154 49 108 1.0 5.0 0.01 0.01 0.00 73 1009.7
20260505051621 49 57 3.0 5.0 0.01 0.01 0.00 72 1009.7
20260505051121 50 62 2.0 7.0 0.01 0.01 0.00 72 1010.0
20260505050627 50 27 4.0 7.0 0.01 0.01 0.00 70 1010.0
20260505050133 51 36 1.0 4.0 0.01 0.01 0.00 69 1010.4
20260505041627 54 48 2.0 9.0 0.00 0.00 0.00 50 1010.1
20260505041129 55 32 2.0 7.0 0.00 0.00 0.00 49 1010.3
20260505040632 55 48 4.0 7.0 0.00 0.00 0.00 48 1010.4
20260505040151 55 357 3.0 10.0 0.00 0.00 0.00 48 1010.0
20260505035654 55 115 3.0 11.0 0.00 0.00 0.00 47 1009.8
20260505035136 55 19 4.0 9.0 0.00 0.00 0.00 47 1009.5
20260505034618 55 25 4.0 8.0 0.00 0.00 0.00 47 1009.5
20260505034119 55 53 4.0 10.0 0.00 0.00 0.00 47 1009.7
20260505033644 55 354 6.0 10.0 0.00 0.00 0.00 47 1009.5
20260505033120 55 110 1.0 9.0 0.00 0.00 0.00 47 1009.4
20260505032644 55 72 3.0 12.0 0.00 0.00 0.00 47 1009.3
20260505032123 56 9 5.0 12.0 0.00 0.00 0.00 47 1009.3
20260505031627 56 50 5.0 9.0 0.00 0.00 0.00 47 1009.5
20260505031124 56 46 2.0 12.0 0.00 0.00 0.00 46 1009.5
20260505030630 56 14 4.0 12.0 0.00 0.00 0.00 45 1009.1
20260505030133 56 295 6.0 11.0 0.00 0.00 0.00 45 1009.1
20260505025620 56 14 4.0 11.0 0.00 0.00 0.00 45 1008.9
20260505025136 56 73 4.0 14.0 0.00 0.00 0.00 45 1008.9
20260505024620 56 38 8.0 14.0 0.00 0.00 0.00 45 1008.9
20260505024118 57 9 5.0 15.0 0.00 0.00 0.00 46 1008.4
20260505023623 57 38 6.0 15.0 0.00 0.00 0.00 46 1008.5
20260505023126 57 42 2.0 15.0 0.00 0.00 0.00 46 1008.4
20260505022617 57 29 5.0 13.0 0.00 0.00 0.00 45 1008.5
20260505022116 57 252 7.0 14.0 0.00 0.00 0.00 45 1008.2
20260505021641 58 28 5.0 14.0 0.00 0.00 0.00 44 1008.0
20260505021122 58 103 7.0 16.0 0.00 0.00 0.00 44 1007.8
20260505020628 58 32 7.0 16.0 0.00 0.00 0.00 44 1008.1
20260505020127 58 19 9.0 16.0 0.00 0.00 0.00 45 1008.0
20260505015638 58 48 5.0 16.0 0.00 0.00 0.00 45 1008.0
20260505015117 58 354 4.0 14.0 0.00 0.00 0.00 45 1008.0
20260505014644 58 63 7.0 18.0 0.00 0.00 0.00 45 1007.6
20260505014139 58 19 7.0 18.0 0.00 0.00 0.00 45 1007.5
20260505013642 59 43 3.0 16.0 0.00 0.00 0.00 44 1007.3
20260505013118 60 71 6.0 17.0 0.00 0.00 0.00 43 1007.6
20260505012626 60 69 4.0 18.0 0.00 0.00 0.00 42 1007.2
20260505012146 61 36 7.0 18.0 0.00 0.00 0.00 41 1007.2
20260505011632 61 324 4.0 17.0 0.00 0.00 0.00 41 1006.8
20260505011131 61 92 5.0 15.0 0.00 0.00 0.00 41 1007.1
20260505010636 62 52 6.0 15.0 0.00 0.00 0.00 40 1006.9
20260505010122 62 52 2.0 15.0 0.00 0.00 0.00 39 1007.0
20260505005629 63 33 6.0 14.0 0.00 0.00 0.00 38 1006.8
20260505005126 64 44 7.0 17.0 0.00 0.00 0.00 38 1006.7
20260505004633 64 48 4.0 17.0 0.00 0.00 0.00 37 1006.7
20260505004115 65 54 6.0 17.0 0.00 0.00 0.00 36 1006.6
20260505003622 65 31 8.0 16.0 0.00 0.00 0.00 36 1006.4
20260505003121 65 96 7.0 16.0 0.00 0.00 0.00 36 1006.2
20260505002626 66 285 5.0 16.0 0.00 0.00 0.00 36 1006.2
20260505002122 66 350 7.0 16.0 0.00 0.00 0.00 35 1006.2
20260505001630 67 343 5.0 15.0 0.00 0.00 0.00 35 1006.0
20260505001147 68 1 6.0 13.0 0.00 0.00 0.00 35 1005.9
20260505000650 68 60 7.0 13.0 0.00 0.00 0.00 34 1005.8
20260505000134 69 192 5.0 19.0 0.00 0.00 0.00 34 1005.7
20260504235657 69 23 8.0 19.0 0.00 0.00 0.00 35 1005.7
20260504235132 69 186 4.0 17.0 0.00 0.00 0.00 35 1005.7
20260504234636 69 307 6.0 17.0 0.00 0.00 0.00 34 1005.7
20260504234133 70 130 7.0 16.0 0.00 0.00 0.00 34 1005.6
20260504233621 70 4 5.0 16.0 0.00 0.00 0.00 33 1005.5
20260504233117 70 37 5.0 14.0 0.00 0.00 0.00 33 1005.4
20260504232624 71 29 6.0 14.0 0.00 0.00 0.00 32 1005.2
20260504232122 72 65 7.0 14.0 0.00 0.00 0.00 31 1005.2
20260504231628 72 357 4.0 11.0 0.00 0.00 0.00 32 1005.1
20260504231128 73 71 6.0 13.0 0.00 0.00 0.00 31 1005.0
20260504230619 73 31 9.0 13.0 0.00 0.00 0.00 31 1004.9
20260504230123 74 47 7.0 12.0 0.00 0.00 0.00 30 1004.8
20260504225626 74 19 4.0 18.0 0.00 0.00 0.00 31 1004.6
20260504225144 74 74 4.0 18.0 0.00 0.00 0.00 31 1004.5
20260504224631 74 28 5.0 16.0 0.00 0.00 0.00 31 1004.4
20260504224149 74 35 5.0 16.0 0.00 0.00 0.00 30 1004.4
20260504223648 75 40 6.0 12.0 0.00 0.00 0.00 30 1004.3
20260504223149 76 94 6.0 12.0 0.00 0.00 0.00 30 1004.2
20260504222620 76 111 4.0 12.0 0.00 0.00 0.00 31 1003.9
20260504222120 76 354 4.0 13.0 0.00 0.00 0.00 30 1003.8
20260504221624 76 331 6.0 14.0 0.00 0.00 0.00 30 1003.7
20260504221120 76 19 4.0 14.0 0.00 0.00 0.00 30 1003.7
20260504220625 77 94 4.0 13.0 0.00 0.00 0.00 31 1003.4
20260504220127 77 327 6.0 13.0 0.00 0.00 0.00 30 1003.5
20260504215632 77 66 5.0 18.0 0.00 0.00 0.00 30 1003.5
20260504215152 77 328 5.0 18.0 0.00 0.00 0.00 30 1003.4
20260504214635 77 19 7.0 18.0 0.00 0.00 0.00 29 1003.5
20260504214132 78 353 6.0 14.0 0.00 0.00 0.00 30 1003.4
20260504213637 78 323 4.0 13.0 0.00 0.00 0.00 30 1003.4
20260504213134 78 79 4.0 13.0 0.00 0.00 0.00 31 1003.4
20260504212625 78 334 5.0 12.0 0.00 0.00 0.00 32 1003.3
20260504212130 78 14 3.0 12.0 0.00 0.00 0.00 31 1003.2
20260504211618 79 188 4.0 14.0 0.00 0.00 0.00 33 1003.2
20260504211121 78 44 5.0 14.0 0.00 0.00 0.00 32 1003.2
20260504210651 78 88 4.0 14.0 0.00 0.00 0.00 33 1003.2
20260504210115 79 79 4.0 12.0 0.00 0.00 0.00 32 1003.3
20260504205623 79 27 5.0 15.0 0.00 0.00 0.00 33 1003.2
20260504205121 79 307 6.0 20.0 0.00 0.00 0.00 33 1003.1
20260504204626 79 300 4.0 20.0 0.00 0.00 0.00 34 1003.2
20260504204122 79 47 2.0 11.0 0.00 0.00 0.00 35 1003.0
20260504203631 79 65 5.0 11.0 0.00 0.00 0.00 34 1003.0
20260504203129 80 318 4.0 8.0 0.00 0.00 0.00 35 1003.0
20260504202657 80 146 5.0 8.0 0.00 0.00 0.00 35 1002.9
20260504202114 80 327 4.0 9.0 0.00 0.00 0.00 34 1003.0
20260504201623 80 315 5.0 10.0 0.00 0.00 0.00 35 1003.0
20260504201121 80 340 5.0 10.0 0.00 0.00 0.00 36 1002.9
20260504200627 80 33 2.0 10.0 0.00 0.00 0.00 35 1002.9
20260504200125 80 266 2.0 10.0 0.00 0.00 0.00 36 1002.9
20260504195628 80 235 1.0 13.0 0.00 0.00 0.00 38 1002.8
20260504195129 80 24 5.0 13.0 0.00 0.00 0.00 35 1002.8
20260504194636 79 40 5.0 10.0 0.00 0.00 0.00 36 1002.8
20260504194133 80 329 5.0 9.0 0.00 0.00 0.00 36 1002.8
20260504193623 80 342 5.0 12.0 0.00 0.00 0.00 35 1002.8
20260504193120 80 30 8.0 12.0 0.00 0.00 0.00 34 1002.7
20260504192626 80 59 6.0 12.0 0.00 0.00 0.00 34 1002.7
20260504192144 80 312 6.0 12.0 0.00 0.00 0.00 35 1002.7
20260504191648 80 292 7.0 13.0 0.00 0.00 0.00 34 1002.6
20260504191125 80 305 6.0 13.0 0.00 0.00 0.00 34 1002.6
20260504190628 81 284 4.0 13.0 0.00 0.00 0.00 34 1002.6
20260504190132 80 332 4.0 19.0 0.00 0.00 0.00 33 1002.4
20260504185636 81 317 6.0 19.0 0.00 0.00 0.00 32 1002.5
20260504185118 81 249 2.0 11.0 0.00 0.00 0.00 33 1002.4
20260504184625 81 308 3.0 13.0 0.00 0.00 0.00 33 1002.4
20260504184131 82 250 4.0 12.0 0.00 0.00 0.00 31 1002.3
20260504183655 82 341 4.0 9.0 0.00 0.00 0.00 32 1002.2
20260504183135 81 255 3.0 9.0 0.00 0.00 0.00 31 1002.2
20260504182623 81 314 5.0 13.0 0.00 0.00 0.00 31 1002.3
20260504182121 81 284 5.0 15.0 0.00 0.00 0.00 31 1002.3
20260504181623 80 255 5.0 15.0 0.00 0.00 0.00 32 1002.3
20260504181118 81 262 5.0 15.0 0.00 0.00 0.00 31 1002.3
20260504180623 81 277 4.0 11.0 0.00 0.00 0.00 32 1002.3
20260504180145 81 57 5.0 9.0 0.00 0.00 0.00 32 1002.4
20260504175631 80 344 3.0 11.0 0.00 0.00 0.00 32 1002.5
20260504175117 80 291 3.0 13.0 0.00 0.00 0.00 32 1002.5
20260504174623 80 279 4.0 13.0 0.00 0.00 0.00 32 1002.6
20260504174142 79 285 3.0 16.0 0.00 0.00 0.00 35 1002.6
20260504173628 79 296 7.0 16.0 0.00 0.00 0.00 33 1002.7